Other Public Products
Issued by NWS Grand Forks, ND

Home | Current Version | Previous Version | Text Only | Print | Product List | Glossary Off
Versions: 1 2 3 4 5 6 7 8 9 10 11 12 13 14 15 16 17 18 19 20 21 22 23 24 25 26 27 28 29 30 31 32 33 34 35 36 37 38 39 40 41 42 43 44 45 46 47 48 49 50

000
FPUS83 KFGF 041531
OPUFGF
PRAIRIE TO PINES WEATHER ROUNDUP
NATIONAL WEATHER SERVICE EASTERN NORTH DAKOTA/GRAND FORKS ND
900 AM CST SUN DEC 04 2016

 **SATELLITE DATA USED TO AUGMENT SKY COVER AT AUTOMATED STATIONS**
 *****  WEATHER ACROSS EASTERN NORTH DAKOTA  *****

CITY           SKY/WX    TMP DP  RH WIND       PRES   REMARKS
GRAND FORKS    CLOUDY    34  32  92 S10       29.69S
GRAND FORKS AF CLOUDY    33  31  94 SW8       29.69S
GRAND CITY NWS   N/A     32 N/A N/A S10         N/A  WCI  24
BUXTON           N/A     46  46  99 S6          N/A
DEVILS LAKE    FLURRIES  26  24  92 W13       29.68S WCI  15
FARGO          LGT SNOW  33  31  92 S10       29.73S VSB 3/4 WCI  25
WAHPETON ARPT  CLOUDY    32  32 100 S12       29.76S WCI  23
$$

 *****  WEATHER ACROSS CENTRAL AND WESTERN NORTH DAKOTA  *****

CITY           SKY/WX    TMP DP  RH WIND       PRES   REMARKS
JAMESTOWN      CLOUDY    33  29  85 NW14      29.70S WCI  23
BISMARCK       MOCLDY    31  28  89 W12       29.77R WCI  22
MINOT          CLOUDY    28  25  88 W14       29.71R WCI  17
MINOT AFB      CLOUDY    26  24  90 NW14      29.70R WCI  15
GARRISON         N/A     31  27  85 NW13      29.72R WCI  21
WILLISTON      CLEAR     20  17  88 SW5       29.76S WCI  13
DICKINSON      CLEAR     19  14  81 W15       29.74S WCI   5
HETTINGER      CLEAR     18  13  80 W7        29.81S WCI   9
$$

 *****  OTHER OBSERVATIONS NORTHEAST NORTH DAKOTA  *****

CITY           SKY/WX    TMP DP  RH WIND       PRES   REMARKS
WALHALLA         N/A     32  32 100 SW7       29.64F
LANGDON        LGT SNOW  30  30 100 W13       29.63S WCI  20
CAVALIER         N/A     32  32 100 SW8       29.65S WCI  25
GRAFTON        CLOUDY    32  32 100 S8        29.69S FOG     WCI  25
CANDO          CLOUDY    27  27 100 W14       29.68S FOG     WCI  15
FORT TOTTEN      N/A     26  26 100 W7        29.95S WCI  18
ROLLA          CLOUDY    27  27 100 W9        29.63F WCI  17
RUGBY            N/A     25  25 100 W16       29.68R WCI  12
 ***** THE ABOVE OBSERVATIONS ARE NON NWS ARE NOT QUALITY
        CONTROLLED AND MAY MIS-REPORT RAIN FOR SNOW...
$$

 *****  OTHER OBSERVATIONS SOUTHEAST NORTH DAKOTA *****

CITY           SKY/WX    TMP DP  RH WIND       PRES   REMARKS
COOPERSTOWN    CLOUDY    30  27  86 W14G21    29.69F WCI  20
VALLEY CITY    CLOUDY    32  32 100 W10       29.72S WCI  24
OAKES          NOT AVBL
GWINNER          N/A     34  32  93 SW12      29.74S
SHEYENNE NWR     N/A     31  29  94 SW7       29.95S WCI  24
BUFFALO          N/A     32  30  94 E5          N/A
WYNDMERE         N/A     32  30  93 SW7         N/A
 ***** THE ABOVE OBSERVATIONS ARE NON NWS ARE NOT QUALITY
       CONTROLLED AND MAY MIS-REPORT RAIN FOR SNOW...
$$

  *****  WEATHER ACROSS NORTHERN MINNESOTA  *****

CITY           SKY/WX    TMP DP  RH WIND       PRES   REMARKS
FLAG ISLAND    LGT SNOW  30  27  86 SE17      29.75F WCI  18
WARROAD        CLOUDY    30  27  86 SE13      29.75F FOG     WCI  20
ROSEAU         LGT SNOW  34  28  80 SE13      29.72F WCI  25
HALLOCK        CLOUDY    34  32  93 S16       29.67F FOG     WCI  23
THF RVR FALLS  MIX PCPN  32  31  96 SE12      29.72F WCI  23
HALSTAD          N/A     32  32  99 S10         N/A  WCI  24
FOSSTON        LGT SNOW  30  28  93 SE7       29.73F WCI  23
BAUDETTE       LGT SNOW  29  26  89 SE9       29.76F FOG     WCI  20
WASKISH        LGT SNOW  30  28  93 SE8       29.77F WCI  23
CROOKSTON      CLOUDY    34  32  93 S16       29.72S FOG     WCI  23
$$
  *****  WEATHER ACROSS CENTRAL AND WEST MINNESOTA  *****

CITY           SKY/WX    TMP DP  RH WIND       PRES   REMARKS
BEMIDJI        CLOUDY    31  30  97 SE12      29.75F FOG     WCI  21
PARK RAPIDS    LGT SNOW  32  29  88 SE13      29.76F FOG     WCI  22
WADENA         LGT SNOW  32  30  93 S10       29.76  WCI  24
DETROIT LAKES  LGT SNOW  32  32 100 S10       29.74F WCI  24
MOORHEAD       CLOUDY    34  30  86 S10       29.74S FOG
FERGUS FALLS   CLOUDY    34  34 100 S13       29.79F FOG     WCI  25
ELBOW LAKE     LGT SNOW  32  32 100 S14       29.77F WCI  22
MORRIS MN      CLOUDY    34  32  93 S12       29.77F FOG
STAPLES        CLOUDY    30  30 100 S8        29.79F FOG     WCI  23
WHEATON        LGT SNOW N/A N/A N/A S5        29.79F
$$
  *****  WEATHER ELSEWHERE ACROSS MINNESOTA  *****

CITY           SKY/WX    TMP DP  RH WIND       PRES   REMARKS
DULUTH         SNOW      29  27  92 SE13      29.89F VSB 1/2 WCI  19
INTRNTL FALLS  SNOW      29  26  89 SE12      29.82F VSB 1/2 WCI  19
ELY            LGT SNOW  27  27 100 SE9       29.88F WCI  17
CLOQUET        LGT SNOW  28  27  93 SE5       29.88F WCI  23
BRAINERD       CLOUDY    31  30  96 SE13      29.82F FOG     WCI  21
HIBBING        CLOUDY    27  25  92 SE13      29.86F WCI  16
ALEXANDRIA     CLOUDY    33  32  96 S13       29.79F WCI  24
SAINT CLOUD    CLOUDY    32  32 100 S10       29.85F FOG     WCI  24
MINNEAPOLIS    CLOUDY    33  31  92 S8        29.91F FOG
$$

  *****  WEATHER ACROSS SOUTH DAKOTA  *****

CITY           SKY/WX    TMP DP  RH WIND       PRES   REMARKS
SIOUX FALLS    MOSUNNY   32  30  92 SW6       29.87
BROOKINGS      CLOUDY    30  29  96 SW6       29.83S WCI  24
WATERTOWN      PTCLDY    30  28  92 W14       29.79F WCI  19
HURON          CLEAR     30  26  85 W9        29.86S WCI  22
SISSETON         N/A     35  31  85 W7        29.75F
ABERDEEN       CLEAR     29  25  85 SW8       29.80R WCI  21
MITCHELL       CLEAR     32  26  78 W8        29.89S WCI  25
PIERRE         CLEAR     26  21  81 W3        29.86S
MOBRIDGE       CLEAR     29  20  69 W10       29.79S WCI  20
RAPID CITY     CLEAR     27  17  66 W7        29.88S WCI  19
$$

  *****  SOME WEATHER IN NEARBY STATES *****

CITY           SKY/WX    TMP DP  RH WIND       PRES   REMARKS
GLASGOW MT     CLEAR     21  16  81 S14       29.73F WCI   8
GREAT FALLS MT CLOUDY    34  21  59 SW16      29.65F WCI  24
CHEYENNE WY    CLOUDY    28   7  41 SW13      29.97R WCI  17
SCOTTSBLUFF NE CLEAR     19  11  70 NW3       29.99S
OMAHA NE       CLOUDY    35  30  82 SW5       29.99R
DES MOINES IA  LGT SNOW  34  33  96 S7        29.98S FOG
DAVENPORT IA   HVY SNOW  31  29  92 SE12      30.06F VSB 1/4 WCI  22
CHICAGO IL     LGT SNOW  33  26  75 SE7       30.11F
EAU CLAIRE WI  SNOW      31  29  92 SE12      29.94F VSB 1/2 WCI  22
LA CROSSE WI   LGT SNOW  34  32  92 S8        29.99S VSB 1
$$

  *****  SOME NATIONAL WEATHER *****

CITY           SKY/WX    TMP DP  RH WIND       PRES   REMARKS
LA GUARDIA NY  PTSUNNY   43  24  47 N13G23    30.23F
RALEIGH NC     CLOUDY    43  30  60 VRB6      30.31S
ATLANTA GA     HVY RAIN  44  43  96 E14       30.15R FOG
NEW ORLEANS LA CLOUDY    63  63 100 NW8       29.93R
OKLAHOMA CITY  CLOUDY    45  42  89 N10       30.07R
ALBUQUERQUE NM CLOUDY    30  12  47 N6        30.17R WCI  24
SALT LAKE CITY MOCLDY    29  19  66 SE12      30.17F WCI  19
LOS ANGELES CA CLEAR     47  30  51 E5        30.07S
BOISE ID       CLOUDY    41  32  70 SE14      29.98F
SEATTLE WA     LGT RAIN  40  38  93 N7        29.99R FOG
$$

*** WEATHER ACROSS MANITOBA...SASKATCHEWAN AND ONTARIO ***
                ***ONTARIO***

CITY           SKY/WX    TMP DP  RH WIND       PRES   REMARKS
GERALDTON      FRZ DRZL  21  19  93 SE7       30.07F WCI  13
THUNDER BAY    CLOUDY    32  25  74 SE9       30.01F WCI  24
SIOUX LOOKOUT  FLURRIES  25  21  86 SE6       29.87F WCI  18
TORONTO        PTSUNNY   34  25  69 NE3       30.27R
BIG TROUT LK   CLOUDY    21  19  93 S15G22    29.95F WCI   8
PICKLE LAKE    CLOUDY    21  19  93 S9        29.93F WCI  11
DRYDEN         FLURRIES  27  25  93 SE12G17   29.83F WCI  16
KENORA         LGT SNOW  27  25  93 SE13G18   29.78F WCI  16
$$
                *** MANITOBA***

CITY           SKY/WX    TMP DP  RH WIND       PRES   REMARKS
BRANDON        LGT SNOW  27  25  93 NW9       29.64S VSB 1   WCI  17
DAUPHIN        LGT SNOW  28  27  93 W5        29.66S WCI  23
ISLAND LAKE    NOT AVBL
PILOT MOUND      N/A     27  25  93 W6          N/A  WCI  20
THE PAS        CLOUDY    27  25  93 S5        29.65S WCI  21
THOMPSON       LGT SNOW  23  21  93 SE3       29.72F
WINNIPEG       LGT SNOW  32  30  93 SE16G22   29.67F FOG     WCI  21
LYNN LAKE      LGT SNOW  21  19  93 SE7       29.62F WCI  13
CHURCHILL      MOCLDY     7   5  92 S9        29.89F WCI  -7
GILLAM         CLOUDY    16  14  93 SE3       29.85S
$$
                ***SASKATCHEWAN***

CITY           SKY/WX    TMP DP  RH WIND       PRES   REMARKS
ESTEVAN        CLOUDY    25  25 100 NW13      29.70S DRFTSNOWWCI  13
KINDERSLEY     CLOUDY    16  14  93 N5        29.64S WCI   9
LLOYDMINSTER   PTCLDY    19  14  79 W10       29.60F WCI   8
PRINCE ALBERT  MOCLDY    21  19  93 SW5       29.63S FOG     WCI  15
REGINA         FOG       12  10  92 SE5       29.69S VSB 3/8 WCI   4
YORKTON        CLOUDY    27  25  93 W8        29.66S WCC1F1C2F2C3F3C4F4C5F5C6F6C7F7C8F8C9F9CaFaCbFbCcFcCdFdCe!


USA.gov is the U.S. government's official web portal to all federal, state and local government web resources and services.